Monterey, CA

11:03 PM PST on December 03, 2016 (GMT -0800)
Monterey Peninsula

Weather History for KMRY - January, 2011

Change the Weather History Date:

Saturday, January 22, 2011

  Actual Average Record
Temperature  
Mean Temperature 58 °F 51 °F  
Max Temperature 71 °F 59 °F 71 °F (2011)
Min Temperature 45 °F 43 °F 34 °F (2002)
Degree Days  
Heating Degree Days 7    
Month to date heating degree days 275  
Since 1 July heating degree days 1653  
Cooling Degree Days 0    
Month to date cooling degree days 0  
Year to date cooling degree days 0  
Growing Degree Days 8 (Base 50)    
Moisture  
Dew Point 40 °F    
Average Humidity 51    
Maximum Humidity 71    
Minimum Humidity 31    
Precipitation  
Precipitation 0.00 in - 0.62 in (2009)
Month to date precipitation 1.03  
Year to date precipitation 1.03  
Since 1 July precipitation 8.01  
Sea Level Pressure  
Sea Level Pressure 30.02 in    
Wind  
Wind Speed 5 mph (ENE)    
Max Wind Speed 10 mph    
Max Gust Speed 21 mph    
Visibility 10 miles    
Events      
T = Trace of Precipitation, MM = Missing Value Source: NWS Daily Summary

Daily Weather History Graph

Daily Weather History Graph

Search for Another Location

Airport or City:

Trip Planner

Search our weather history database for the weather conditions in past years. The results will help you decide how hot, cold, wet, or windy it might be!

Date:

Astronomy

Jan. 22, 2011 Rise Set
Actual Time 7:15 AM PST 5:22 PM PST
Civil Twilight 6:48 AM PST 5:50 PM PST
Nautical Twilight 6:16 AM PST 6:21 PM PST
Astronomical Twilight 5:45 AM PST 6:52 PM PST
Moon 9:09 PM PST (1/22) 8:51 AM PST (1/22)
Length of Visible Light 11h 02m
Length of Day
10h 06m
Waning Gibbous, 88% of the Moon is Illuminated
Jan 22
Waning Gibbous
Jan 26
Last Quarter
Feb 2
New
Feb 10
First Quarter
Feb 18
Full

Hourly Weather History & Observations

Time (PST) Temp. Windchill Dew Point Humidity Pressure Visibility Wind Dir Wind Speed Gust Speed Precip Events Conditions
12:54 AM 48.0 °F - 39.0 °F 71% 30.06 in 10.0 mi East 4.6 mph - N/A   Clear
1:54 AM 46.0 °F 43.9 °F 37.9 °F 73% 30.05 in 10.0 mi ESE 4.6 mph - N/A   Clear
2:54 AM 46.0 °F 43.9 °F 37.0 °F 71% 30.05 in 10.0 mi East 4.6 mph - N/A   Clear
3:54 AM 46.9 °F - 36.0 °F 66% 30.03 in 10.0 mi East 6.9 mph - N/A   Clear
4:54 AM 46.0 °F 44.8 °F 36.0 °F 68% 30.02 in 10.0 mi East 3.5 mph - N/A   Clear
5:54 AM 46.0 °F 44.8 °F 36.0 °F 68% 30.02 in 10.0 mi East 3.5 mph - N/A   Clear
6:54 AM 45.0 °F 41.8 °F 36.0 °F 71% 30.03 in 10.0 mi East 5.8 mph - N/A   Clear
7:54 AM 50.0 °F - 36.0 °F 59% 30.04 in 10.0 mi Variable 4.6 mph - N/A   Clear
8:54 AM 59.0 °F - 37.9 °F 46% 30.05 in 10.0 mi NE 4.6 mph - N/A   Clear
9:54 AM 63.0 °F - 37.9 °F 40% 30.05 in 10.0 mi NNE 5.8 mph - N/A   Clear
10:54 AM 66.0 °F - 39.0 °F 37% 30.04 in 10.0 mi NNE 3.5 mph - N/A   Clear
11:54 AM 70.0 °F - 37.9 °F 31% 30.01 in 10.0 mi Variable 5.8 mph - N/A   Clear
12:54 PM 69.1 °F - 39.9 °F 35% 30.00 in 10.0 mi North 6.9 mph - N/A   Clear
1:54 PM 66.0 °F - 43.0 °F 43% 29.99 in 10.0 mi WSW 8.1 mph - N/A   Clear
2:54 PM 60.1 °F - 46.0 °F 60% 29.99 in 10.0 mi WNW 4.6 mph - N/A   Clear
3:54 PM 60.1 °F - 45.0 °F 57% 29.99 in 10.0 mi Calm Calm - N/A   Clear
4:54 PM 61.0 °F - 46.0 °F 58% 29.98 in 10.0 mi Calm Calm - N/A   Clear
5:54 PM 60.8 °F - 46.4 °F 59% 29.96 in 10.0 mi ENE 4.6 mph - N/A   Clear
6:54 PM 57.0 °F - 45.0 °F 64% 30.00 in 10.0 mi ENE 3.5 mph - N/A   Clear
7:54 PM 55.9 °F - 44.1 °F 64% 30.01 in 10.0 mi East 6.9 mph - N/A   Clear
8:54 PM 54.0 °F - 43.0 °F 66% 30.02 in 10.0 mi East 6.9 mph - N/A   Clear
9:54 PM 52.0 °F - 41.0 °F 66% 30.03 in 10.0 mi East 6.9 mph - N/A   Clear
10:54 PM 51.1 °F - 39.9 °F 66% 30.05 in 10.0 mi East 5.8 mph - N/A   Clear
11:54 PM 54.0 °F - 39.0 °F 57% 30.04 in 10.0 mi East 5.8 mph - N/A   Clear